• In Deutschland
  • Länderverzeichnis
  • Für 7 Tage
  • Wassertemperatur
  • Satellitenkarten
  • Wetterkarte
  • Widgets
  • user-avatar
    Anmelden

    Stündliche Wetter Kalgoorlie

    Heute, 31 März, Freitag

    Zeit Temperatur Niederschläge Wind Luftdruck Luftfeuchtigkeit
    00:00 +16°C° 0 mm 3 m/S 734 mmHg 47%
    01:00 +16°C° 0 mm 3 m/S 734 mmHg 49%
    02:00 +14°C° 0 mm 3 m/S 734 mmHg 51%
    03:00 +14°C° 0 mm 3 m/S 734 mmHg 52%
    04:00 +14°C° 0 mm 3 m/S 734 mmHg 53%
    05:00 +13°C° 0 mm 3 m/S 734 mmHg 54%
    06:00 +14°C° 0 mm 3 m/S 735 mmHg 52%
    07:00 +16°C° 0 mm 3 m/S 735 mmHg 49%
    08:00 +17°C° 0 mm 3 m/S 735 mmHg 46%
    09:00 +19°C° 0 mm 3 m/S 735 mmHg 41%
    10:00 +21°C° 0 mm 3 m/S 735 mmHg 35%
    11:00 +24°C° 0 mm 3 m/S 736 mmHg 30%
    12:00 +25°C° 0 mm 3 m/S 735 mmHg 28%
    13:00 +26°C° 0 mm 3 m/S 735 mmHg 25%
    14:00 +26°C° 0 mm 4 m/S 735 mmHg 23%
    15:00 +26°C° 0 mm 4 m/S 735 mmHg 24%
    16:00 +26°C° 0 mm 4 m/S 735 mmHg 25%
    17:00 +25°C° 0 mm 4 m/S 735 mmHg 26%
    18:00 +23°C° 0 mm 4 m/S 735 mmHg 30%
    19:00 +21°C° 0 mm 4 m/S 735 mmHg 33%
    20:00 +20°C° 0 mm 4 m/S 736 mmHg 37%
    21:00 +19°C° 0 mm 4 m/S 736 mmHg 40%
    22:00 +18°C° 0 mm 4 m/S 736 mmHg 42%
    23:00 +18°C° 0 mm 4 m/S 736 mmHg 45%

    Morgen, 1 April, Samstag

    Zeit Temperatur Niederschläge Wind Luftdruck Luftfeuchtigkeit
    00:00 +17°C° 0 mm 4 m/S 736 mmHg 47%
    01:00 +17°C° 0 mm 4 m/S 736 mmHg 50%
    02:00 +15°C° 0 mm 4 m/S 736 mmHg 52%
    03:00 +14°C° 0 mm 4 m/S 736 mmHg 56%
    04:00 +14°C° 0 mm 4 m/S 736 mmHg 61%
    05:00 +13°C° 0 mm 4 m/S 736 mmHg 65%
    06:00 +14°C° 0 mm 5 m/S 737 mmHg 64%
    07:00 +15°C° 0 mm 6 m/S 737 mmHg 63%
    08:00 +15°C° 0 mm 6 m/S 737 mmHg 62%
    09:00 +17°C° 0 mm 6 m/S 737 mmHg 54%
    10:00 +20°C° 0 mm 6 m/S 737 mmHg 46%
    11:00 +22°C° 0 mm 6 m/S 737 mmHg 38%
    12:00 +23°C° 0 mm 6 m/S 737 mmHg 35%
    13:00 +24°C° 0 mm 6 m/S 736 mmHg 33%
    14:00 +24°C° 0 mm 6 m/S 736 mmHg 30%
    15:00 +24°C° 0 mm 6 m/S 736 mmHg 31%
    16:00 +23°C° 0 mm 6 m/S 736 mmHg 33%
    17:00 +23°C° 0 mm 6 m/S 735 mmHg 34%
    18:00 +21°C° 0 mm 5 m/S 736 mmHg 39%
    19:00 +20°C° 0 mm 5 m/S 736 mmHg 44%
    20:00 +19°C° 0 mm 5 m/S 737 mmHg 50%
    21:00 +17°C° 0 mm 5 m/S 737 mmHg 54%
    22:00 +16°C° 0 mm 6 m/S 737 mmHg 59%
    23:00 +16°C° 0 mm 6 m/S 737 mmHg 64%

    übermorgen, 2 April, Sonntag

    Zeit Temperatur Niederschläge Wind Luftdruck Luftfeuchtigkeit
    00:00 +15°C° 0 mm 6 m/S 737 mmHg 66%
    01:00 +15°C° 0 mm 6 m/S 737 mmHg 68%
    02:00 +14°C° 0 mm 5 m/S 736 mmHg 70%
    03:00 +14°C° 0 mm 5 m/S 736 mmHg 72%
    04:00 +13°C° 0 mm 5 m/S 736 mmHg 74%
    05:00 +13°C° 0 mm 5 m/S 736 mmHg 76%
    06:00 +14°C° 0 mm 5 m/S 737 mmHg 72%
    07:00 +15°C° 0 mm 6 m/S 737 mmHg 68%
    08:00 +16°C° 0 mm 7 m/S 737 mmHg 63%
    09:00 +18°C° 0 mm 7 m/S 737 mmHg 55%
    10:00 +21°C° 0 mm 7 m/S 737 mmHg 47%
    11:00 +22°C° 0 mm 6 m/S 737 mmHg 38%
    12:00 +23°C° 0 mm 6 m/S 736 mmHg 35%
    13:00 +24°C° 0 mm 6 m/S 736 mmHg 32%
    14:00 +26°C° 0 mm 5 m/S 735 mmHg 28%
    15:00 +26°C° 0 mm 5 m/S 735 mmHg 29%
    16:00 +25°C° 0 mm 4 m/S 735 mmHg 30%
    17:00 +25°C° 0 mm 4 m/S 735 mmHg 31%
    18:00 +23°C° 0 mm 4 m/S 735 mmHg 35%
    19:00 +21°C° 0 mm 4 m/S 736 mmHg 39%
    20:00 +20°C° 0 mm 4 m/S 736 mmHg 43%
    21:00 +19°C° 0 mm 4 m/S 736 mmHg 46%
    22:00 +19°C° 0 mm 4 m/S 736 mmHg 48%
    23:00 +18°C° 0 mm 4 m/S 736 mmHg 51%

    3 April, Montag

    Zeit Temperatur Niederschläge Wind Luftdruck Luftfeuchtigkeit
    00:00 +18°C° 0 mm 4 m/S 736 mmHg 53%
    01:00 +17°C° 0 mm 4 m/S 736 mmHg 55%
    02:00 +17°C° 0 mm 4 m/S 736 mmHg 57%
    03:00 +16°C° 0 mm 3 m/S 736 mmHg 58%
    04:00 +16°C° 0 mm 3 m/S 736 mmHg 59%
    05:00 +16°C° 0 mm 3 m/S 736 mmHg 60%
    06:00 +17°C° 0 mm 4 m/S 736 mmHg 56%
    07:00 +18°C° 0 mm 4 m/S 736 mmHg 52%
    08:00 +19°C° 0 mm 4 m/S 737 mmHg 48%
    09:00 +21°C° 0 mm 4 m/S 736 mmHg 42%
    10:00 +23°C° 0 mm 4 m/S 736 mmHg 35%
    11:00 +26°C° 0 mm 4 m/S 736 mmHg 28%
    12:00 +27°C° 0 mm 3 m/S 736 mmHg 26%
    13:00 +28°C° 0 mm 2 m/S 735 mmHg 24%
    14:00 +29°C° 0 mm 1 m/S 734 mmHg 22%
    15:00 +28°C° 0 mm 1 m/S 734 mmHg 23%
    16:00 +28°C° 0 mm 1 m/S 735 mmHg 25%
    17:00 +28°C° 0 mm 1 m/S 735 mmHg 26%
    18:00 +26°C° 0 mm 2 m/S 735 mmHg 28%
    19:00 +25°C° 0 mm 2 m/S 735 mmHg 29%
    20:00 +22°C° 0 mm 3 m/S 736 mmHg 31%
    21:00 +22°C° 0 mm 3 m/S 736 mmHg 33%
    22:00 +21°C° 0 mm 3 m/S 736 mmHg 36%
    23:00 +20°C° 0 mm 4 m/S 736 mmHg 38%

    4 April, Dienstag

    Zeit Temperatur Niederschläge Wind Luftdruck Luftfeuchtigkeit
    00:00 +20°C° 0 mm 3 m/S 736 mmHg 40%
    01:00 +19°C° 0 mm 3 m/S 736 mmHg 41%
    02:00 +19°C° 0 mm 3 m/S 735 mmHg 43%
    03:00 +18°C° 0 mm 3 m/S 736 mmHg 45%
    04:00 +18°C° 0 mm 3 m/S 736 mmHg 46%
    05:00 +17°C° 0 mm 3 m/S 736 mmHg 48%
    06:00 +18°C° 0 mm 3 m/S 736 mmHg 46%
    07:00 +19°C° 0 mm 4 m/S 737 mmHg 44%
    08:00 +20°C° 0 mm 4 m/S 737 mmHg 41%
    09:00 +22°C° 0 mm 4 m/S 737 mmHg 37%
    10:00 +25°C° 0 mm 4 m/S 737 mmHg 32%
    11:00 +27°C° 0 mm 4 m/S 737 mmHg 27%
    12:00 +27°C° 0 mm 4 m/S 736 mmHg 25%
    13:00 +28°C° 0 mm 4 m/S 736 mmHg 23%
    14:00 +29°C° 0 mm 4 m/S 735 mmHg 21%
    15:00 +28°C° 0 mm 4 m/S 735 mmHg 22%
    16:00 +28°C° 0 mm 4 m/S 735 mmHg 23%
    17:00 +27°C° 0 mm 4 m/S 735 mmHg 25%
    18:00 +26°C° 0 mm 4 m/S 735 mmHg 28%
    19:00 +23°C° 0 mm 4 m/S 736 mmHg 31%
    20:00 +21°C° 0 mm 4 m/S 736 mmHg 35%
    21:00 +21°C° 0 mm 4 m/S 736 mmHg 37%
    22:00 +20°C° 0 mm 4 m/S 735 mmHg 39%
    23:00 +19°C° 0 mm 4 m/S 735 mmHg 42%

    5 April, Mittwoch

    Zeit Temperatur Niederschläge Wind Luftdruck Luftfeuchtigkeit
    00:00 +19°C° 0 mm 4 m/S 735 mmHg 45%
    01:00 +18°C° 0 mm 4 m/S 735 mmHg 48%
    02:00 +17°C° 0 mm 4 m/S 734 mmHg 52%
    03:00 +17°C° 0 mm 4 m/S 734 mmHg 56%
    04:00 +16°C° 0 mm 3 m/S 734 mmHg 61%
    05:00 +16°C° 0 mm 3 m/S 734 mmHg 66%
    06:00 +16°C° 0 mm 3 m/S 734 mmHg 64%
    07:00 +17°C° 0 mm 4 m/S 734 mmHg 62%
    08:00 +18°C° 0 mm 4 m/S 734 mmHg 60%
    09:00 +20°C° 0 mm 4 m/S 734 mmHg 50%
    10:00 +22°C° 0 mm 4 m/S 734 mmHg 40%
    11:00 +26°C° 0 mm 4 m/S 733 mmHg 30%
    12:00 +26°C° 0 mm 3 m/S 732 mmHg 27%
    13:00 +27°C° 0 mm 3 m/S 732 mmHg 24%
    14:00 +28°C° 0 mm 3 m/S 731 mmHg 22%
    15:00 +27°C° 0 mm 2 m/S 731 mmHg 22%
    16:00 +27°C° 0 mm 2 m/S 730 mmHg 23%
    17:00 +27°C° 0 mm 2 m/S 730 mmHg 24%
    18:00 +25°C° 0 mm 2 m/S 730 mmHg 26%
    19:00 +24°C° 0 mm 2 m/S 730 mmHg 27%
    20:00 +22°C° 0 mm 3 m/S 730 mmHg 29%
    21:00 +21°C° 0 mm 3 m/S 730 mmHg 30%
    22:00 +21°C° 0 mm 3 m/S 730 mmHg 32%
    23:00 +20°C° 0 mm 4 m/S 730 mmHg 33%
    Mehr zeigen